Regional Weather Roundup
Issued by NWS Memphis, TN

Home | Current Version | Previous Version | Text Only | Print | Product List | Glossary On
Versions: 1 2 3 4 5 6 7 8 9 10 11 12 13 14 15 16 17 18 19 20 21 22 23 24 25 26 27 28 29 30 31 32 33 34 35 36 37 38 39 40 41 42 43 44 45 46 47 48 49 50
000
ASUS44 KMEG 221610
RWRMEG
MEMPHIS CWA HOURLY WEATHER ROUNDUP
NATIONAL WEATHER SERVICE MEMPHIS TN
1100 AM CDT FRI AUG 22 2014

...WEST TENNESSEE...

CITY           SKY/WX    TMP DP  RH WIND       PRES   REMARKS
MEMPHIS INTL   MOSUNNY   90  74  59 SW8       30.09F HX  99
NWS MEMPHIS      N/A     88 N/A N/A MISG        N/A
JACKSON        SUNNY     88  76  67 SW7       30.10R HX  99
LEXINGTON      SUNNY     88  73  62 SW5       30.10R HX  96
SAVANNAH       SUNNY     88  75  66 W6        30.11S HX  97
DYERSBURG      SUNNY     90  70  51 W8        30.08S HX  95
UNION CITY     SUNNY     88  77  70 SW8       30.06F HX 100
PARIS          SUNNY     86  73  66 SW7       30.10S HX  93
HUNTINGDON     SUNNY     86  75  69 SW8       30.09S HX  95


...EASTERN ARKANSAS...

CITY           SKY/WX    TMP DP  RH WIND       PRES   REMARKS
JONESBORO      SUNNY     88  75  65 SW8       30.05F HX  97
WEST MEMPHIS   SUNNY     87  77  72 SW8       30.07S HX  99
BATESVILLE     SUNNY     91  75  59 W10       30.05S HX 102
NEWPORT        SUNNY     90  77  65 S9        30.06F HX 103
WALNUT RIDGE   SUNNY     88  73  62 S9        30.04S HX  96
BLYTHEVILLE    SUNNY     88  79  74 SW6       30.07S HX 103
SEARCY           N/A     89  77  67 CALM        N/A  HX 101
STUTTGART      SUNNY     88  75  66 SW8       30.09S HX  97
PINE BLUFF     SUNNY     87  72  60 W9        30.09R HX  93
MONTICELLO     SUNNY     86  73  65 SW8       30.10R HX  93


...NORTH MISSISSIPPI...

CITY           SKY/WX    TMP DP  RH WIND       PRES   REMARKS
TUPELO         SUNNY     90  72  55 VRB5      30.11F HX  97
OLIVE BRANCH   MOSUNNY   88  79  74 SW8       30.10S HX 102
CLARKSDALE     SUNNY     86  77  74 CALM      30.11F HX  97
CORINTH        SUNNY     88  73  62 W5        30.10S HX  96
GRENADA        SUNNY     86  73  66 W5        30.12S HX  93
GREENWOOD      SUNNY     86  73  65 W5        30.12S HX  93
COLUMBUS       SUNNY     89  73  57 VRB3      30.12F HX  96
STARKVILLE     FAIR      88  72  58 CALM      30.12S HX  94
GOLDEN TRIANGL SUNNY     91  72  52 NW7       30.13S HX  98


...SOUTHEAST MISSOURI...

CITY           SKY/WX    TMP DP  RH WIND       PRES   REMARKS
WEST PLAINS    SUNNY     87  71  58 W8        30.08F HX  93
POPLAR BLUFF   SUNNY     86  73  65 SW6       30.04S HX  93
CAPE GIRARDEAU PTSUNNY   85  76  74 S6        30.04F HX  94


...NORTHWEST ALABAMA...

CITY           SKY/WX    TMP DP  RH WIND       PRES   REMARKS
MUSCLE SHOALS  SUNNY     88  72  58 NW3       30.13F HX  94


...MIDDLE TENNESSEE...

CITY           SKY/WX    TMP DP  RH WIND       PRES   REMARKS
NASHVILLE      PTSUNNY   90  74  59 W10G16    30.10S HX  99
CLARKSVILLE    PTSUNNY   86  74  67 W9        30.08F HX  94
DICKSON        PTSUNNY   86  73  66 W12       30.11S HX  93
COLUMBIA       SUNNY     90  75  62 VRB7      30.11R HX 100
LEWISBURG      MOSUNNY   89  73  59 VRB6      30.12S HX  96


...WESTERN KENTUCKY...

CITY           SKY/WX    TMP DP  RH WIND       PRES   REMARKS
PADUCAH        PTSUNNY   88  76  67 SW10      30.05S HX  99
FORT CAMPBELL  PTSUNNY   87  76  71 W12       30.08F HX  97


...CENTRAL ARKANSAS...

CITY           SKY/WX    TMP DP  RH WIND       PRES   REMARKS
LITTLE ROCK    SUNNY     88  72  58 SW10      30.07F HX  94


SKY/WX REPORTED AS FAIR MEANS FEW OR NO CLOUDS BELOW
12 THOUSAND FEET.



USA.gov is the U.S. government's official web portal to all federal, state and local government web resources and services.